Wind_Gust
20 17 16 16 16 17 17 17 17 16 16 17 17 17 18 18 19 19 19 19 20 20 20 20 20 20 21 21 22 23 19 18 21 15 8 29 12 17 17 10 6 6 13 5 3 2 3 2 4 2 6 7 5 7 7 5 6 6 9 9 7 10 6 10 10 11 4 8 11 18 12 10 5 7 9 20 21 18 17 17 15 21 18 23 27 26 27 25
20 20 19 17 17 17 17 16 17 16 16 17 16 17 18 18 19 19 19 19 20 20 19 19 20 20 20 20 22 21 19 13 19 19 33 17 14 21 22 19 12 8 10 6 5 5 5 1 2 3 9 7 2 7 5 10 7 10 7 8 15 10 14 7 7 9 6 10 10 13 13 6 5 3 8 18 6 16 23 16 21 25 25 25 26 26 26 23
21 21 20 19 18 17 17 17 16 16 16 17 17 17 18 19 19 19 19 19 19 19 19 19 20 20 20 20 19 19 16 19 11 18 31 22 33 27 25 21 18 12 6 4 5 8 7 9 8 7 4 6 3 7 4 9 10 10 11 11 12 10 9 7 8 12 8 7 14 12 15 9 9 4 5 13 15 14 30 29 22 26 27 27 27 28 25 21
22 22 22 21 20 19 17 17 17 16 16 17 17 17 18 19 19 19 19 19 19 18 18 19 19 20 20 19 19 14 12 9 13 16 7 14 25 28 28 24 19 15 6 5 6 10 5 8 5 8 6 5 7 2 11 10 14 8 10 13 10 9 8 11 9 14 13 3 7 9 10 10 9 4 8 16 20 9 10 28 40 32 32 31 28 29 26 22
23 22 22 22 21 21 20 18 17 16 17 17 17 17 18 19 19 18 18 18 18 18 18 19 19 19 19 20 18 7 11 7 14 4 8 18 14 17 23 26 21 13 12 5 5 3 7 4 6 3 7 12 3 3 8 6 8 9 11 8 8 3 5 13 15 13 8 6 4 5 11 11 7 6 16 17 19 21 25 14 23 37 38 37 33 28 24 23
23 23 23 23 22 21 21 20 19 18 17 17 17 17 17 18 18 18 18 18 18 17 18 18 19 18 19 19 14 3 4 16 5 7 20 17 16 14 19 23 20 15 11 7 8 4 8 2 5 8 8 6 7 12 8 6 5 12 7 5 9 10 11 9 9 7 3 6 6 9 7 9 5 7 5 12 9 6 13 14 17 25 30 28 29 29 26 23
22 23 23 22 23 23 23 23 21 20 18 18 17 17 17 17 17 17 18 18 17 17 18 17 17 18 16 13 10 4 9 28 5 10 21 21 20 16 14 14 21 17 13 11 7 12 5 6 7 5 9 5 4 11 10 2 3 8 15 2 7 7 11 14 16 13 11 6 12 8 9 8 4 10 5 13 5 16 20 19 23 25 23 25 28 22 25 24
22 22 22 23 23 24 24 23 22 21 19 19 18 17 16 16 16 17 17 17 17 16 17 16 16 16 14 10 11 6 4 27 14 7 20 23 21 16 13 12 18 18 15 16 14 8 8 10 13 7 8 15 7 13 3 6 3 7 9 4 9 5 10 14 13 15 13 13 11 6 5 5 5 8 6 8 14 19 22 22 25 25 24 21 21 23 21 20
22 22 22 23 22 23 23 23 23 22 21 19 19 16 16 15 16 16 16 16 16 16 16 16 16 14 10 3 4 10 24 17 3 10 17 20 18 12 10 14 10 19 15 11 9 9 11 11 7 10 11 7 5 7 4 7 13 10 12 8 8 8 8 10 12 12 14 13 6 7 6 7 16 17 18 12 13 19 23 24 25 24 24 21 21 19 21 18
23 22 22 22 22 23 24 24 24 23 22 23 20 18 16 15 14 15 16 16 16 15 15 14 15 15 9 6 4 9 16 3 8 15 16 18 17 11 13 8 14 11 15 7 7 10 12 13 13 6 7 5 6 8 3 7 12 5 6 7 10 11 8 8 10 12 10 9 6 7 8 12 7 11 8 12 15 21 25 26 22 24 25 21 18 18 14 18
24 24 23 22 23 24 24 24 24 23 22 23 21 18 17 15 15 15 15 16 16 15 14 15 14 11 6 5 7 21 8 4 7 13 14 14 14 12 10 7 5 13 11 6 11 13 8 9 5 7 6 15 8 4 5 10 3 6 8 3 6 9 8 11 10 14 5 12 9 17 12 3 11 8 19 20 19 21 28 23 25 21 20 21 21 26 19 18
24 24 24 23 23 22 23 25 25 25 24 24 22 19 16 14 14 13 15 15 15 15 14 13 13 11 10 11 16 32 7 8 16 17 15 11 13 10 8 8 4 4 9 12 10 11 8 7 5 6 13 4 9 1 7 4 3 5 3 5 9 7 10 6 10 9 6 11 10 12 11 6 13 13 16 21 21 21 22 25 25 20 18 20 21 22 19 15
24 24 24 24 23 23 25 25 24 24 23 24 21 19 19 15 12 13 14 14 13 14 14 13 9 4 7 18 31 32 29 28 17 16 21 6 11 10 10 8 5 6 6 9 10 10 7 7 4 4 5 6 6 13 5 3 5 7 4 4 7 8 11 12 3 9 5 9 14 12 10 11 9 16 18 20 25 23 20 19 20 18 25 25 23 24 21 15
24 24 24 23 23 23 23 24 24 24 24 23 20 19 19 16 15 14 14 15 15 14 13 13 5 5 8 24 21 11 12 12 16 22 22 7 3 12 7 7 6 7 6 9 11 7 9 7 7 7 4 3 8 5 10 10 6 10 7 7 6 2 9 8 5 6 11 9 10 5 10 9 8 15 17 21 26 28 25 24 20 19 19 20 15 21 20 15
25 25 24 24 23 22 24 23 23 22 23 22 22 19 19 16 13 14 15 14 13 13 13 9 3 5 9 29 12 20 24 14 12 20 15 6 4 10 11 5 4 7 12 13 12 5 9 10 7 8 11 5 4 5 9 5 7 4 10 10 8 6 11 12 6 10 15 6 7 11 8 13 14 17 18 19 20 24 28 23 22 24 25 23 19 17 17 14
25 25 24 23 22 22 23 23 22 23 23 22 20 18 15 16 14 13 15 14 14 13 4 3 4 7 8 30 17 8 7 6 13 15 9 11 8 13 6 3 7 7 6 7 11 7 9 10 12 14 8 3 7 10 7 8 7 9 7 6 5 3 8 7 2 6 6 9 6 7 11 6 7 14 20 20 24 21 24 23 25 25 23 21 16 17 19 18
24 24 23 22 22 22 23 22 22 21 21 19 16 16 16 13 14 14 14 15 12 5 6 9 4 8 10 14 9 7 9 11 8 6 4 9 14 11 4 3 5 6 7 8 7 7 4 12 6 8 7 11 10 11 6 6 9 9 6 10 7 6 5 6 11 3 3 5 7 6 16 14 10 18 16 15 23 22 23 25 26 25 22 20 20 20 20 19
25 24 22 21 22 22 22 22 21 21 20 18 15 11 13 9 14 15 10 7 4 8 10 9 4 6 33 16 17 7 6 10 14 13 12 5 14 6 6 8 4 5 8 7 4 12 10 13 10 13 6 11 10 11 23 27 23 11 8 7 5 2 4 7 8 5 4 5 9 3 6 6 9 16 20 32 18 20 27 25 26 26 23 20 21 21 19 18
23 23 21 21 21 21 22 23 21 21 19 18 14 11 12 12 6 4 6 6 7 5 8 17 16 18 7 4 9 7 16 20 16 7 7 8 5 6 4 5 5 5 8 10 10 14 10 8 7 8 21 17 22 19 18 7 13 11 11 12 7 8 6 7 10 8 4 3 6 5 12 4 12 16 17 21 17 18 22 22 21 23 24 22 21 18 17 16
23 22 21 20 21 20 23 22 21 20 18 12 9 10 9 7 5 10 8 12 14 13 7 6 24 12 20 8 3 12 16 6 6 7 6 6 17 8 5 7 5 6 10 16 9 15 13 18 23 30 21 13 6 10 11 10 10 8 6 9 6 6 7 7 5 8 2 9 8 7 9 7 11 11 17 22 22 19 18 23 26 23 19 18 19 18 17 16
22 21 20 21 21 20 20 20 18 18 17 13 10 10 13 13 8 14 7 14 18 17 21 15 19 24 27 9 17 22 25 14 3 6 6 4 8 17 11 10 8 7 7 10 17 7 13 16 22 7 7 11 11 10 9 8 6 8 7 5 4 3 8 6 4 6 8 7 4 8 17 12 5 9 17 21 22 22 22 21 20 19 18 20 20 19 16 14
21 20 20 20 20 20 19 18 18 16 17 9 11 13 7 6 5 8 9 16 10 18 18 22 17 24 27 22 16 7 7 13 20 12 11 8 9 23 8 13 10 16 4 8 10 14 20 27 9 6 10 13 10 12 11 12 8 5 7 5 5 9 7 9 5 8 8 12 3 5 20 11 7 9 16 23 21 22 23 28 28 26 23 20 19 18 15 16
20 20 21 20 19 18 18 18 16 15 11 10 13 12 10 7 5 4 6 14 24 18 22 19 18 22 31 18 12 10 9 15 19 11 8 9 7 16 16 15 12 10 9 10 22 11 16 13 11 10 11 15 5 10 11 9 7 9 5 6 12 7 8 9 5 6 13 10 12 10 20 14 10 8 9 12 16 18 20 22 18 22 25 20 18 16 18 19
19 20 19 19 18 17 16 16 14 12 15 12 11 14 5 3 6 9 7 11 16 10 18 23 24 22 27 17 16 19 14 13 11 12 7 12 16 10 18 14 13 14 19 11 9 15 10 5 12 12 11 15 11 8 13 13 11 3 9 8 9 5 6 10 6 5 8 12 16 18 15 8 10 18 16 10 19 18 17 16 18 18 17 17 18 15 16 20
18 17 17 17 17 15 16 14 10 10 12 12 13 7 9 13 9 3 9 11 14 22 15 17 17 16 17 10 9 18 11 13 15 8 7 8 12 18 11 15 18 19 12 9 9 11 9 7 10 16 11 9 13 10 15 16 11 8 7 13 11 7 6 3 2 5 10 4 10 12 11 10 8 13 16 15 14 18 15 18 19 15 14 13 15 17 17 17
17 17 16 17 15 15 10 12 9 12 12 10 9 8 7 11 6 8 8 10 17 11 10 15 24 23 29 12 19 14 6 17 16 24 12 8 6 14 17 17 19 19 9 12 14 17 13 5 12 17 13 11 11 12 8 14 13 10 18 13 8 10 6 5 2 7 5 9 15 7 14 15 5 17 17 17 18 17 21 16 20 22 17 15 16 18 17 15
16 16 15 14 13 9 9 10 7 11 13 8 10 10 7 11 3 9 12 10 13 22 21 9 20 21 24 19 25 15 9 20 9 10 14 16 10 9 18 10 13 9 14 15 15 24 16 12 10 10 15 15 12 18 15 17 16 19 5 14 10 8 7 4 3 3 11 5 9 3 10 17 12 16 20 16 18 20 22 17 18 15 14 13 15 16 15 14
16 16 14 13 11 10 9 9 7 10 11 7 6 9 13 6 5 10 8 12 22 13 13 12 20 13 10 20 23 28 11 6 22 15 13 9 7 12 14 11 16 13 11 14 26 5 16 15 14 13 13 18 24 13 9 14 22 14 6 16 12 12 10 8 8 8 8 3 16 7 8 13 16 12 12 19 18 16 17 16 17 16 18 23 18 18 17 14
15 15 14 12 11 11 12 8 9 8 7 6 6 8 11 7 10 13 11 12 12 17 13 17 12 8 8 18 19 21 6 4 7 11 10 6 11 9 23 11 13 13 6 12 15 8 8 17 16 14 15 24 11 11 16 17 15 5 11 7 8 5 5 9 10 9 7 8 15 9 12 16 12 4 14 14 17 18 17 16 19 18 21 21 20 19 16 14
14 14 13 11 8 7 5 6 6 5 5 6 5 8 4 7 11 8 11 13 8 6 6 8 12 11 14 23 15 17 8 7 5 14 13 17 11 4 7 10 14 14 13 6 10 12 6 8 17 21 23 14 11 9 16 15 9 9 12 11 6 7 4 5 8 8 5 13 20 11 11 14 16 15 18 22 24 28 18 16 14 15 17 17 17 19 17 16
12 12 12 9 8 7 5 5 5 4 4 7 7 6 10 9 13 11 7 15 8 5 7 8 14 16 20 21 20 16 8 5 6 21 18 10 10 7 11 12 8 12 8 8 12 13 8 6 15 16 13 12 11 11 7 16 10 16 14 12 10 6 8 6 6 5 15 22 10 13 18 12 20 13 13 9 7 23 28 25 21 21 21 18 15 19 17 16
12 12 12 6 6 3 7 5 5 3 5 6 5 8 11 14 10 13 17 8 14 11 6 8 6 19 18 10 12 24 24 5 6 21 27 25 16 22 23 26 29 26 23 17 17 7 15 12 7 5 15 17 15 12 5 8 8 11 12 13 17 14 13 18 10 16 21 24 7 5 15 8 18 9 7 15 12 18 19 24 24 21 21 18 16 16 19 15
12 13 14 9 9 4 6 5 4 4 5 5 6 9 12 9 15 12 16 13 12 13 11 6 8 14 15 11 14 17 7 10 6 11 16 14 19 16 7 15 11 21 23 9 10 17 15 9 7 11 7 18 19 27 15 15 14 15 19 19 20 19 19 20 14 14 12 12 5 2 7 16 6 5 9 13 13 15 17 15 20 21 21 16 16 15 18 14
12 12 9 6 6 7 5 2 2 4 4 3 6 8 6 8 12 7 9 7 11 14 12 7 10 11 16 21 12 21 15 6 8 17 17 21 18 23 17 14 14 10 13 13 27 22 17 23 27 15 20 13 22 19 18 12 13 16 9 21 18 19 26 22 18 24 17 12 7 4 17 16 10 7 12 7 17 18 17 18 19 19 18 17 16 13 18 15
14 11 6 8 5 8 11 7 4 5 3 4 7 12 16 17 5 7 5 14 13 16 12 17 8 13 12 7 6 16 10 17 7 11 15 22 26 28 26 24 9 12 9 25 16 18 24 18 13 15 7 16 17 10 15 14 10 11 14 15 15 29 13 9 15 14 11 10 7 9 13 6 7 7 10 14 18 19 19 20 21 21 17 19 18 16 15 13
9 8 3 9 4 5 4 7 5 2 3 6 8 13 14 8 8 9 11 13 14 19 23 18 12 11 9 9 5 17 11 9 10 14 12 15 11 20 11 16 25 16 19 26 14 16 11 27 4 9 7 11 16 15 16 18 30 18 18 29 28 11 13 11 5 3 7 11 11 8 7 7 3 7 7 16 20 20 20 21 21 22 17 16 19 20 14 12
7 9 7 4 4 3 5 7 8 5 2 4 8 10 9 8 7 9 13 16 18 19 14 10 19 11 12 18 13 17 15 7 9 14 17 10 17 15 20 11 9 12 11 18 9 9 20 11 7 10 16 13 8 22 12 19 15 21 27 19 8 6 11 15 14 6 8 17 17 6 9 11 12 15 9 14 22 20 20 20 20 19 19 19 16 15 14 14
8 7 5 4 8 5 8 8 7 3 4 5 11 12 7 11 6 11 12 19 21 16 9 5 10 7 12 11 14 19 9 12 9 12 11 13 22 9 13 19 8 16 10 3 18 13 12 10 16 10 16 17 6 10 11 12 15 22 16 13 29 17 22 12 13 10 10 15 15 9 9 9 14 9 18 19 23 23 23 21 23 21 19 18 18 16 15 13
3 3 6 10 9 11 8 7 4 6 6 9 7 10 8 7 7 9 13 15 14 17 11 5 8 6 8 11 7 7 12 21 10 9 20 18 12 13 21 13 11 10 13 10 12 9 8 11 10 7 15 11 11 16 24 20 10 5 13 22 10 15 14 16 25 12 18 9 9 9 11 19 20 13 20 23 25 25 26 24 22 23 21 20 20 18 18 16
7 5 8 9 8 7 7 4 6 5 4 6 4 9 5 10 9 8 9 11 14 11 6 6 7 5 6 3 7 14 8 9 13 10 6 13 18 4 18 14 16 15 11 7 9 5 10 6 9 13 5 11 25 26 22 19 19 12 17 18 14 16 7 15 9 14 15 22 15 15 15 18 11 16 22 22 24 23 28 25 21 20 20 18 18 19 17 16
3 6 7 4 4 7 8 8 5 4 5 5 5 8 8 11 10 9 10 11 15 12 14 9 8 4 3 7 6 7 15 9 13 11 12 11 18 12 11 18 15 17 11 8 9 8 10 9 14 6 14 20 16 9 9 17 18 18 20 18 14 14 13 21 18 9 11 18 19 17 23 13 13 7 20 18 18 19 19 22 19 21 19 18 17 16 16 18
6 8 7 5 4 6 8 5 4 2 3 5 6 6 10 11 12 10 11 9 14 17 8 12 12 11 7 9 6 5 15 15 11 8 8 12 8 7 11 11 17 14 25 22 15 8 12 12 9 8 14 13 10 5 8 20 19 18 24 18 15 11 16 18 22 13 9 8 9 9 9 10 8 3 12 15 18 18 19 21 22 20 18 17 16 15 13 13
9 6 3 9 6 10 7 3 3 3 5 6 6 12 13 13 9 9 12 10 11 13 12 14 10 7 8 9 3 5 11 17 14 14 6 9 8 18 10 16 14 17 18 20 8 13 9 11 11 8 8 10 6 6 3 8 16 8 15 10 16 17 15 18 18 16 16 6 7 6 10 11 6 6 14 17 16 16 18 21 23 19 16 16 17 17 17 17
7 6 6 4 7 4 6 5 5 4 9 8 8 12 8 11 9 11 13 13 10 5 8 5 4 12 5 5 4 6 7 15 10 13 14 7 13 12 9 13 18 23 22 17 24 9 22 10 14 8 10 6 9 7 6 4 12 17 17 13 15 13 8 6 11 5 17 16 14 18 17 11 9 15 18 20 20 19 20 19 26 22 16 17 17 17 17 17
6 4 3 5 8 4 6 5 7 8 7 11 13 11 11 9 13 20 18 17 14 15 7 8 8 3 7 4 5 5 6 9 19 12 9 5 13 4 10 13 14 13 11 10 10 15 14 8 12 11 16 16 18 25 25 14 19 12 5 11 11 15 13 11 11 9 17 8 6 15 13 8 13 19 21 22 21 19 19 20 18 24 21 18 17 18 19 18
5 8 6 4 10 11 10 7 9 9 13 10 8 10 8 12 11 16 19 23 21 18 18 12 10 8 6 9 7 6 5 4 14 20 14 7 7 11 12 14 13 13 10 16 14 18 18 9 9 13 14 16 14 10 8 8 9 15 7 13 10 7 17 14 14 14 22 10 12 11 16 17 21 23 25 25 26 24 24 22 23 21 20 21 20 20 19 18
3 6 6 7 4 10 12 6 8 9 9 8 12 12 9 12 16 19 11 11 7 13 6 8 5 8 7 8 6 5 4 5 9 17 13 7 6 7 7 16 16 17 15 17 16 16 11 14 7 9 3 7 8 6 2 4 12 11 10 11 10 15 13 15 19 22 13 20 13 8 14 31 24 20 21 21 24 24 22 22 22 22 21 22 19 19 17 18
6 6 2 7 7 8 6 11 15 15 17 11 12 7 12 13 12 10 10 7 9 8 8 5 10 4 7 7 6 8 6 6 7 15 4 5 3 8 8 3 11 14 20 17 14 15 16 17 6 8 3 3 3 4 6 6 5 7 4 6 13 13 11 18 15 8 16 18 20 17 20 25 28 33 33 32 29 29 27 24 21 21 22 20 22 22 21 20
6 7 7 4 6 6 10 9 8 13 14 12 10 7 10 8 8 6 6 13 12 8 7 7 8 15 16 13 7 6 3 14 9 5 13 9 3 6 7 5 3 6 16 11 18 12 20 9 10 6 7 9 12 10 9 10 6 7 9 8 7 8 14 12 7 7 13 5 11 29 26 16 18 23 21 23 22 25 23 21 22 24 25 24 22 21 21 20
7 9 8 6 11 14 14 12 11 10 9 11 8 8 8 5 5 9 7 5 10 7 6 7 11 15 13 12 6 9 3 5 7 11 7 7 4 4 4 7 7 7 9 16 18 5 14 13 11 8 8 7 8 7 12 9 5 11 7 11 13 7 11 6 8 8 16 18 13 19 17 13 4 15 19 18 21 23 23 24 24 23 24 26 24 22 20 19
8 8 11 14 14 10 8 6 8 8 7 5 6 7 5 5 5 8 10 5 7 5 6 6 10 15 4 8 11 7 5 4 3 4 8 9 13 10 10 7 7 13 12 14 12 9 9 7 5 11 12 7 6 8 9 12 10 15 7 14 15 11 11 6 15 9 16 17 20 19 17 14 10 21 20 22 23 27 27 26 25 25 25 26 27 24 22 21
8 7 7 10 10 8 8 7 7 5 6 6 6 5 6 7 5 7 12 6 2 5 6 9 9 8 9 14 14 11 10 4 5 4 5 4 9 9 10 10 10 18 19 18 5 15 14 18 12 9 14 7 5 6 8 13 7 4 6 5 6 7 8 6 5 4 10 34 26 23 23 24 30 29 30 25 27 26 26 28 27 24 24 27 27 26 23 21
Wind_Speed
16 14 12 13 12 13 12 12 13 13 12 13 13 13 14 14 14 14 14 15 15 15 16 16 15 16 16 17 18 19 16 9 13 7 5 16 7 12 13 7 2 2 7 2 2 1 1 1 3 1 3 3 1 3 2 1 1 2 2 3 2 4 3 4 4 5 1 2 6 9 4 5 3 3 1 6 10 9 10 9 6 13 10 11 13 12 14 13
16 15 15 13 13 13 13 12 12 13 13 13 13 13 14 14 14 15 15 15 15 15 15 15 16 16 16 16 17 16 12 8 12 13 19 7 8 16 17 15 10 5 8 3 3 2 3 0 1 2 4 2 1 1 2 1 1 3 1 2 8 5 6 4 2 4 1 5 6 8 2 3 1 1 1 6 1 9 12 10 12 13 13 14 13 13 14 13
15 16 16 15 14 13 13 13 13 12 13 12 13 13 13 14 14 14 15 14 15 15 15 14 14 16 16 16 16 13 10 12 6 9 12 8 22 19 18 13 12 9 3 2 3 5 3 5 5 4 1 3 0 2 1 1 3 4 5 5 6 5 4 4 2 4 3 5 8 7 6 4 3 1 1 4 8 7 15 14 12 15 16 15 13 14 13 13
15 14 15 16 15 15 14 13 13 13 12 13 13 13 13 13 13 14 14 14 14 14 13 15 15 15 15 15 15 7 7 5 4 4 2 11 8 14 16 17 12 11 3 0 4 3 1 5 4 4 1 2 1 0 4 3 3 1 3 5 3 4 3 5 5 8 8 3 3 4 6 4 4 1 2 7 10 1 4 12 22 18 20 19 16 17 15 13
16 15 15 14 16 15 16 15 13 13 13 13 12 13 13 13 13 13 14 14 14 14 13 14 15 15 15 16 14 4 6 3 3 2 5 13 11 9 11 15 17 9 7 3 3 0 2 2 3 1 3 3 0 1 2 2 2 3 6 4 4 1 2 6 5 5 3 3 2 3 7 2 2 3 10 3 2 9 11 9 6 22 21 22 22 18 15 16
17 17 16 16 14 15 16 16 15 14 13 13 12 12 13 13 12 12 13 13 13 13 13 13 13 14 15 13 6 2 1 3 1 1 12 13 13 10 9 10 16 11 8 5 4 3 5 1 3 3 1 2 5 6 2 2 1 3 2 3 5 6 5 1 1 2 1 2 3 5 4 1 2 3 2 1 1 1 5 5 11 13 18 14 15 18 17 16
17 17 16 15 16 15 15 16 17 16 15 15 13 12 12 13 13 12 12 13 13 13 13 12 12 13 13 8 3 2 4 9 3 4 16 16 15 13 3 10 16 12 9 6 3 4 3 4 3 3 4 2 0 3 3 1 0 2 4 0 4 5 7 5 6 4 4 4 4 3 6 3 0 5 1 3 2 7 8 13 14 15 15 17 16 14 17 16
17 17 17 16 17 16 15 16 16 16 16 15 14 13 12 12 12 12 12 12 13 12 12 12 11 11 11 3 5 2 1 11 8 5 13 17 14 12 10 7 12 12 10 10 9 5 5 6 7 3 3 8 3 6 1 2 0 3 2 2 5 1 5 4 3 5 4 5 5 5 3 3 3 3 4 4 4 11 12 14 16 17 16 13 14 16 14 12
17 17 17 18 17 17 17 16 16 16 17 15 15 13 12 11 11 11 11 11 12 12 12 12 12 11 7 1 0 5 10 8 2 6 11 13 13 9 6 4 4 13 8 6 7 6 7 5 3 4 4 2 2 5 1 4 5 4 5 3 4 4 5 5 5 5 5 2 4 2 3 4 6 6 9 8 6 10 15 15 16 15 16 14 13 13 11 10
18 18 17 17 17 18 17 16 16 16 15 18 16 14 12 11 11 11 10 11 12 12 12 11 10 10 5 2 1 2 8 2 4 8 9 11 11 9 10 4 4 5 8 5 5 5 6 4 7 4 4 2 3 2 1 4 4 3 5 5 5 6 4 4 1 4 1 1 4 4 4 4 3 3 1 6 10 13 16 17 14 16 17 14 11 10 9 11
19 19 18 18 17 17 17 17 17 16 17 17 17 15 14 10 10 11 10 10 11 12 10 11 9 8 1 3 0 8 4 3 3 7 9 8 9 7 4 4 1 3 5 4 6 7 4 6 3 3 1 3 4 1 2 2 1 3 2 1 3 5 5 6 3 8 1 3 6 7 7 1 7 0 7 10 12 14 19 16 16 13 11 10 11 9 6 8
19 19 19 18 18 17 17 17 17 17 15 17 18 16 13 11 10 10 9 9 10 10 10 9 10 4 4 5 7 13 3 4 9 10 10 7 7 5 6 4 1 2 5 7 5 3 4 4 3 2 3 2 1 0 1 2 0 2 1 2 4 4 3 3 3 2 3 1 4 6 5 3 7 5 9 11 11 15 14 18 17 12 9 8 2 4 4 5
19 19 19 19 18 18 18 17 17 17 16 15 16 13 15 13 9 9 9 9 8 10 10 10 5 1 3 9 13 17 17 16 11 10 13 4 6 5 7 4 4 4 3 5 3 3 2 3 2 2 0 2 2 2 1 0 2 0 3 1 3 4 5 6 1 2 3 1 6 7 2 5 6 5 11 12 14 14 13 11 11 11 12 10 8 9 3 2
19 19 19 19 18 17 18 18 18 17 17 16 15 14 15 13 11 9 9 8 9 9 9 10 1 1 3 9 6 4 8 7 11 15 14 4 2 4 1 3 3 3 3 3 3 4 1 1 1 1 0 1 1 2 2 2 3 4 1 3 1 1 3 4 1 2 3 4 7 2 3 4 4 7 11 14 16 18 15 14 10 11 11 10 7 4 4 2
19 19 19 19 18 17 17 17 18 18 17 15 15 14 14 13 10 9 9 6 7 9 9 5 1 1 3 10 6 14 19 9 7 11 4 2 2 5 2 2 3 3 4 4 3 3 4 2 1 0 2 1 0 2 2 2 4 1 3 4 3 3 5 8 4 3 6 1 3 6 3 6 8 10 10 13 13 15 18 12 11 11 7 9 7 3 4 1
19 19 19 18 18 17 17 17 17 18 17 15 13 13 11 12 11 9 8 6 8 9 2 1 1 3 4 11 4 4 1 1 4 5 4 8 5 5 1 2 0 2 5 2 3 3 3 4 3 6 1 2 3 5 3 1 1 4 3 2 1 1 3 4 1 2 3 0 3 3 4 2 4 8 11 5 1 10 12 12 13 11 11 9 7 5 5 3
19 18 18 17 17 17 17 17 17 17 17 16 12 10 10 10 10 9 6 6 4 1 2 2 2 3 3 5 4 2 2 3 3 3 2 4 6 4 3 1 0 3 5 5 4 5 2 4 1 2 0 3 4 5 3 2 3 2 1 3 3 4 1 1 6 2 1 1 3 4 7 7 3 11 7 2 5 6 10 11 13 12 10 9 8 8 5 6
20 19 18 17 16 16 16 16 16 16 16 15 12 7 5 6 6 5 3 1 0 2 4 4 2 2 11 4 6 3 2 4 7 7 8 3 5 3 3 1 1 4 5 3 1 3 1 2 2 5 2 4 4 6 9 11 8 4 3 3 0 0 1 2 1 2 0 3 4 1 4 5 3 5 9 6 7 3 7 5 7 9 10 11 8 8 12 8
18 18 17 17 16 16 16 16 15 14 14 14 12 6 6 6 0 1 2 2 3 1 1 5 6 6 1 1 4 5 7 11 9 3 3 4 2 3 1 2 3 3 3 4 1 5 1 2 3 3 8 8 10 9 7 3 8 7 7 6 3 4 2 2 3 4 1 0 1 1 3 1 5 7 9 5 1 7 8 11 8 11 11 2 9 10 8 8
18 17 16 16 16 16 16 15 15 14 13 8 3 2 1 0 0 1 3 6 6 6 2 3 12 5 11 5 0 6 8 2 4 3 3 1 7 4 2 3 2 3 5 6 4 5 4 6 8 12 8 6 5 6 7 4 6 5 4 5 4 3 2 3 2 4 1 4 5 3 2 1 5 7 8 8 7 8 8 13 10 10 9 7 4 7 9 9
18 16 16 16 15 15 15 14 13 13 12 7 4 3 3 5 4 4 2 6 9 9 13 6 12 13 11 4 7 13 12 8 1 3 3 1 2 9 3 3 3 3 2 7 8 1 6 5 9 2 5 7 8 7 5 6 4 5 4 4 1 1 3 2 1 4 5 2 2 2 3 4 1 2 8 7 4 9 11 12 12 12 10 1 2 9 10 8
16 16 15 15 16 15 14 13 13 12 13 5 5 2 2 0 2 3 2 2 5 13 11 14 10 12 12 13 8 3 3 4 14 7 6 5 4 9 3 4 4 8 2 4 6 4 7 9 3 3 7 9 7 8 7 7 3 2 3 2 3 3 3 5 3 5 4 6 1 2 3 3 3 1 5 11 4 3 6 7 14 13 9 9 7 8 9 9
15 15 15 15 15 14 12 13 11 12 5 5 5 6 3 2 2 1 1 1 6 9 13 12 10 13 17 7 4 7 4 7 8 6 2 4 3 6 7 6 7 5 3 6 10 6 5 5 7 4 7 10 3 6 8 5 4 5 3 3 3 2 2 2 2 4 7 3 6 2 6 3 3 3 1 2 3 7 7 5 8 13 16 13 12 10 9 12
15 14 14 14 13 12 12 11 10 7 6 7 6 5 2 1 2 2 4 2 5 3 9 13 14 11 14 6 5 10 8 4 5 7 4 3 6 3 6 7 8 5 9 6 6 8 4 3 7 8 7 10 7 5 8 7 5 0 5 4 3 1 3 3 1 1 4 7 4 8 6 2 2 4 5 5 7 8 4 5 6 5 4 5 8 3 7 13
14 13 13 12 12 7 9 8 3 4 7 7 3 3 3 6 1 1 4 2 2 6 6 6 5 6 7 4 5 7 4 3 9 3 2 3 4 5 3 2 5 8 5 6 6 7 3 2 7 9 5 5 8 6 7 9 6 2 3 6 6 4 2 1 1 2 5 2 4 4 2 2 3 3 6 6 6 7 6 10 10 5 8 5 4 5 5 10
13 12 12 11 9 8 4 1 2 5 5 4 3 4 2 4 1 3 1 0 5 2 4 6 9 8 9 5 9 5 3 4 10 12 5 4 2 2 3 3 3 10 6 8 7 4 5 1 8 11 7 5 7 5 5 8 7 5 6 6 5 5 3 0 0 3 1 1 2 2 4 2 2 6 5 6 6 9 8 8 5 7 8 5 2 5 7 8
13 12 11 10 7 2 3 2 2 6 4 0 2 3 2 3 1 3 1 1 4 4 7 1 8 1 6 10 12 7 2 7 2 4 5 6 3 2 8 5 3 2 4 2 2 5 4 4 5 4 9 9 6 7 5 8 8 3 2 9 6 5 5 2 1 1 2 2 3 1 3 2 1 4 5 9 9 5 11 8 7 5 7 7 4 4 7 6
12 10 9 8 7 1 2 0 2 3 5 2 3 2 2 1 1 1 1 1 3 4 2 2 5 3 2 11 14 11 4 3 4 3 8 5 3 2 4 7 8 8 4 5 11 1 8 5 7 6 5 7 9 4 6 8 7 4 3 9 7 7 5 2 0 0 0 1 7 2 0 2 1 1 3 12 8 4 2 6 8 11 11 15 11 2 6 6
11 9 8 8 8 8 6 2 5 2 2 3 2 3 0 1 2 1 2 2 1 1 3 7 4 2 3 11 9 10 1 1 1 3 3 3 4 2 3 5 6 8 3 7 6 1 1 10 8 9 7 8 4 7 10 9 5 2 6 4 4 3 1 3 4 3 1 1 6 4 3 3 4 2 4 0 10 10 9 10 13 11 12 10 10 8 6 8
10 9 8 7 4 3 1 1 3 2 3 2 3 2 1 3 2 0 3 3 1 2 1 1 2 5 7 11 6 8 2 2 1 2 3 3 5 0 2 5 6 7 3 3 5 6 1 2 10 7 8 4 6 5 9 9 4 5 8 7 3 4 2 3 4 3 2 2 6 6 6 6 3 5 9 9 10 15 9 5 6 8 6 5 7 9 5 7
9 9 8 5 2 1 2 2 3 2 2 4 2 1 2 2 2 2 1 2 2 1 2 1 3 9 10 12 9 5 3 2 1 7 7 2 4 2 3 2 3 5 3 3 4 3 0 2 3 2 8 4 7 4 2 10 6 11 3 5 6 1 4 3 2 2 1 6 3 6 10 7 7 2 3 4 4 12 16 15 12 11 10 10 8 7 7 6
9 9 9 1 2 1 2 2 2 2 3 3 2 2 3 3 4 3 5 3 1 3 1 1 3 6 11 5 5 10 8 1 1 7 12 9 7 7 10 9 8 8 7 6 5 1 3 2 2 1 8 12 6 7 1 4 5 7 7 8 8 2 2 4 1 3 7 5 0 1 1 2 5 3 3 6 6 12 9 11 15 14 11 9 8 9 8 7
9 10 11 5 4 2 3 1 1 2 2 1 2 1 2 2 3 4 6 6 3 4 3 3 3 5 8 6 4 7 2 4 2 4 8 5 8 3 2 5 3 5 7 3 5 5 3 2 2 2 2 6 10 11 4 5 6 9 9 8 8 3 4 6 3 0 4 3 2 0 1 2 1 2 5 3 3 8 7 8 12 14 13 9 8 5 8 8
9 9 4 3 3 3 2 0 1 2 2 1 2 3 2 2 2 1 2 3 4 7 6 2 6 2 9 6 4 9 5 3 5 4 9 8 9 9 5 2 9 3 7 4 7 6 4 5 8 4 1 3 9 7 9 5 7 7 4 10 8 5 5 5 4 7 6 4 2 2 5 4 5 1 6 4 6 11 10 11 10 9 9 10 7 6 6 8
9 6 2 3 2 3 5 4 3 3 2 1 2 2 4 3 2 2 2 5 3 6 5 6 1 5 4 2 3 7 3 2 3 6 6 10 11 10 10 8 1 7 3 10 3 3 9 1 5 8 4 7 9 4 7 8 5 2 4 7 7 10 5 2 4 4 3 2 1 1 2 1 1 3 5 6 10 12 12 12 11 10 9 9 11 7 5 5
6 3 0 3 1 2 2 3 3 2 0 1 1 4 4 1 2 3 4 5 5 8 12 7 5 4 2 3 1 10 8 1 3 5 3 6 3 6 3 3 6 6 6 6 3 3 3 5 1 4 3 7 10 8 5 9 8 5 6 8 5 5 6 4 1 0 3 3 2 1 2 2 0 4 2 9 13 13 13 13 12 12 10 10 11 11 7 4
3 4 2 2 1 1 2 3 3 2 0 1 0 3 2 2 1 2 5 5 8 11 6 3 3 3 3 5 3 9 7 3 3 4 4 4 2 5 6 2 4 3 6 9 1 2 9 3 2 5 6 5 4 14 7 9 7 6 7 6 3 3 6 4 2 1 2 4 3 3 4 2 4 2 3 7 14 10 13 14 13 12 13 12 9 9 9 8
3 2 1 1 4 1 2 3 3 1 1 1 2 6 1 3 2 4 4 7 7 6 4 2 2 5 3 3 3 9 4 4 4 2 4 5 1 4 6 4 3 6 6 0 6 3 5 2 3 6 11 7 2 5 6 4 4 11 7 5 7 2 7 2 3 1 2 2 2 2 3 3 5 3 7 10 15 14 13 13 14 13 12 12 11 11 9 8
0 1 2 3 4 3 2 4 1 0 2 1 1 4 0 1 2 2 4 6 5 7 3 2 3 2 3 3 2 2 3 3 3 3 7 4 2 5 9 4 4 6 8 5 3 2 1 2 1 2 7 4 4 6 10 9 4 3 8 10 4 4 3 5 6 3 6 3 1 2 3 4 7 4 12 13 15 16 17 14 14 15 14 12 12 11 11 10
3 1 2 2 2 1 2 1 1 1 1 1 1 2 2 3 3 4 6 4 3 3 2 3 4 3 3 1 3 5 1 5 6 2 2 2 2 0 7 7 5 7 7 5 2 2 2 1 2 2 2 4 7 5 9 9 8 5 5 6 2 0 2 6 1 3 4 5 4 2 2 5 5 8 13 14 15 14 17 15 12 11 11 11 12 11 10 10
1 1 1 1 0 1 1 0 1 1 2 2 2 2 2 3 3 4 6 5 4 4 5 2 2 1 1 2 1 3 2 2 2 2 1 4 4 2 4 6 7 8 3 4 3 2 2 1 4 0 4 6 1 1 6 10 10 8 8 7 7 7 5 10 7 3 3 5 3 5 7 5 6 2 8 10 9 9 12 14 13 10 10 10 9 9 10 11
2 3 2 0 0 2 2 3 1 0 1 2 2 1 3 4 5 5 5 4 7 4 2 4 6 5 2 3 2 1 4 3 1 2 0 5 2 1 5 8 11 9 8 5 6 4 4 3 3 1 4 5 3 4 4 13 8 7 10 7 8 4 6 5 6 5 4 0 3 4 1 2 3 2 3 8 9 10 10 14 13 11 10 10 9 10 9 8
2 0 1 0 1 2 4 2 1 1 2 2 3 7 7 6 4 3 3 3 3 5 2 4 5 3 5 2 0 0 5 1 3 2 2 3 2 6 6 11 10 11 9 3 3 4 3 2 3 2 3 4 4 3 2 4 10 3 5 4 7 6 6 6 4 7 6 2 2 0 1 2 2 1 6 10 10 9 9 10 14 12 9 9 11 11 11 10
3 1 1 2 1 1 2 2 2 1 3 4 4 6 5 5 3 2 5 5 3 1 4 2 2 6 1 3 1 1 2 3 2 4 1 1 1 5 8 8 13 7 9 6 6 3 3 2 6 2 2 1 4 2 1 1 2 4 5 4 7 6 4 2 5 1 5 7 7 7 5 3 1 3 7 11 12 12 12 10 14 13 9 10 11 10 10 10
2 2 1 2 1 0 2 1 3 4 3 5 6 6 3 3 5 8 6 5 6 5 2 3 2 1 2 2 1 1 0 3 1 2 3 2 2 1 5 9 7 6 5 7 7 6 2 3 3 4 7 7 6 9 9 5 8 2 0 5 6 10 7 5 4 2 5 2 4 3 2 3 5 6 10 12 13 11 12 11 9 14 13 11 9 10 10 10
1 1 0 1 3 3 3 3 3 4 6 5 3 3 2 3 3 9 12 9 9 6 6 5 5 2 2 4 3 2 2 1 3 3 2 0 1 1 3 11 8 5 5 12 9 8 3 1 3 5 6 7 4 2 2 3 3 5 4 8 5 4 11 7 6 6 9 4 6 5 8 8 10 12 14 15 15 16 15 14 13 11 13 12 12 10 10 10
1 1 0 2 1 4 5 2 3 3 3 3 4 4 4 3 6 7 8 2 4 7 2 4 1 2 2 4 3 2 0 2 1 6 6 4 2 1 4 8 8 10 10 8 10 6 3 3 2 5 0 2 2 2 1 1 6 6 6 6 7 10 7 8 8 9 6 10 7 0 8 17 15 14 13 12 13 14 13 13 13 12 13 13 11 11 11 10
1 3 0 2 2 2 2 3 5 6 9 4 4 2 5 7 7 4 2 3 4 2 2 2 3 1 2 1 1 1 1 1 2 5 1 0 0 3 2 1 5 8 11 4 6 4 5 5 3 3 1 2 2 3 2 2 2 3 1 3 9 9 8 11 8 4 10 8 9 8 11 13 14 20 21 20 18 17 17 15 14 14 13 13 14 13 12 11
3 2 3 1 2 2 5 6 4 8 8 6 3 3 3 5 5 2 2 5 3 3 1 1 2 5 7 4 3 2 0 5 0 1 3 4 1 0 1 3 0 3 4 4 4 1 5 3 5 3 3 4 6 5 1 6 3 3 4 3 2 6 10 8 4 4 9 3 5 18 18 10 10 14 12 10 10 12 11 11 12 14 16 15 14 14 13 13
2 3 2 2 5 6 8 7 5 5 5 6 3 2 2 2 3 5 3 1 3 4 3 3 6 11 8 2 2 3 0 0 4 4 3 4 0 0 1 2 2 1 3 5 5 1 3 2 6 3 3 2 5 3 4 4 3 5 2 4 4 2 4 2 4 3 6 8 4 11 10 3 1 9 12 11 12 12 12 14 15 15 15 16 15 14 13 12
3 3 4 5 5 4 4 3 3 4 3 2 2 3 2 2 2 4 5 2 3 2 3 2 3 10 2 5 7 5 3 1 1 3 5 5 6 6 4 2 4 6 6 3 3 1 3 1 1 3 5 1 3 2 4 6 7 6 2 5 6 2 5 1 3 3 6 8 11 12 8 3 3 12 12 14 15 16 17 17 15 14 16 17 17 15 14 13
2 3 3 4 3 3 3 4 4 2 2 2 3 2 0 4 3 4 4 2 0 3 2 3 4 5 5 9 9 7 7 3 3 1 2 2 4 4 1 2 6 9 8 7 1 5 4 6 4 2 6 1 3 2 1 4 4 1 1 1 2 2 2 2 2 1 1 15 14 10 12 10 15 16 18 16 18 17 16 16 15 15 15 16 18 17 15 13
Wind_Direction
297 291 287 292 291 295 296 299 303 306 306 307 308 315 315 317 319 321 321 320 320 322 323 322 324 321 323 324 324 324 334 335 314 312 303 246 223 245 249 234 2 21 210 169 354 68 4 29 93 4 86 93 238 126 219 99 137 66 147 121 240 201 160 211 184 189 199 294 300 330 340 19 28 15 82 54 48 77 84 74 71 53 63 100 121 126 122 130
291 293 292 286 288 289 292 293 295 299 301 301 305 308 313 315 318 317 322 321 320 319 324 323 321 322 322 322 327 331 341 317 301 286 247 236 208 229 241 239 236 101 112 98 139 138 114 61 183 96 123 113 305 108 122 222 114 123 122 117 227 182 239 159 200 225 342 281 289 299 328 23 237 146 25 84 100 110 92 89 89 99 94 103 113 121 129 137
325 298 290 290 285 284 287 286 288 292 295 297 300 304 308 312 315 317 318 320 316 320 323 324 326 328 328 323 321 350 349 316 298 267 274 226 232 236 230 223 205 173 171 140 196 148 156 195 169 112 84 97 352 150 145 224 154 220 120 225 243 212 245 208 220 263 212 272 302 315 315 28 272 171 88 127 141 130 130 124 118 130 130 131 134 134 142 142
329 327 307 291 289 285 281 281 282 280 287 292 295 299 303 307 312 315 317 318 318 320 326 326 321 325 325 326 337 349 3 288 276 242 287 298 272 232 232 224 198 193 129 75 156 172 137 88 113 111 96 97 281 104 145 224 142 270 155 197 226 219 226 265 211 238 258 236 266 297 301 1 337 275 101 145 106 24 180 164 153 155 145 146 149 153 154 152
327 328 325 310 291 283 281 279 276 276 280 287 290 293 298 302 310 312 316 316 318 319 322 327 328 318 324 324 342 20 317 1 261 170 332 335 323 287 234 218 199 168 163 143 96 96 155 135 120 52 98 178 358 70 247 234 192 109 208 190 215 112 225 250 243 233 235 240 290 308 338 321 283 78 120 176 211 189 188 186 184 145 148 151 156 161 159 160
325 324 323 320 313 295 287 283 279 278 279 283 284 288 293 301 304 308 312 315 318 318 320 323 325 322 319 333 350 82 148 185 300 77 333 346 338 314 260 201 178 141 137 141 153 152 136 109 93 142 108 103 185 152 266 180 149 224 309 243 230 227 234 247 226 180 153 336 315 328 269 21 68 120 113 144 190 105 117 115 136 147 142 137 143 154 162 164
327 323 321 317 313 314 297 287 284 274 270 271 277 281 288 297 298 304 308 316 320 324 321 322 320 318 328 352 335 126 214 285 326 282 358 358 1 356 331 157 149 136 150 146 150 150 166 130 114 173 113 102 291 174 243 150 116 170 239 264 279 221 234 248 266 305 295 263 266 227 302 325 102 122 321 74 335 124 111 126 136 136 137 144 152 164 163 164
324 324 319 316 315 313 313 294 283 285 273 266 267 275 283 290 295 300 313 313 317 317 321 319 319 322 339 8 359 320 306 248 257 351 353 5 2 13 57 113 136 139 148 173 169 170 137 138 172 150 99 155 215 151 224 174 156 186 248 251 267 225 235 260 267 283 272 255 246 252 288 349 148 152 108 79 113 123 120 126 136 144 144 150 158 167 166 149
321 319 320 317 315 312 312 308 293 279 276 267 266 269 272 285 288 297 304 312 310 314 315 319 318 329 0 70 299 323 250 246 65 355 10 4 355 6 56 89 137 144 166 154 173 170 140 220 139 180 211 158 183 146 224 154 294 193 211 216 261 274 286 277 293 266 257 262 166 69 69 100 107 101 80 124 131 127 127 132 144 145 148 154 169 172 152 134
316 317 314 315 313 310 309 309 305 287 277 275 262 260 266 276 279 288 300 307 309 315 316 316 318 327 350 46 354 245 265 162 20 3 357 2 349 3 35 63 124 130 124 170 135 137 176 198 164 187 127 125 152 187 151 139 222 182 207 221 239 260 304 304 186 292 342 203 194 125 168 195 298 74 157 138 138 133 133 143 146 153 157 157 169 163 140 126
314 313 313 311 311 310 307 306 306 299 283 272 265 256 259 258 271 282 294 302 308 310 316 307 317 324 52 97 85 232 275 60 358 347 348 352 342 1 357 341 71 142 127 151 169 183 170 145 167 124 349 225 145 240 145 207 164 176 195 274 275 293 268 259 314 273 236 282 200 153 178 253 329 69 150 154 151 141 145 148 154 160 150 146 164 154 120 118
311 310 310 309 309 308 306 303 304 305 294 272 269 259 254 255 261 277 287 295 301 306 309 313 310 310 268 253 229 223 304 313 316 321 323 342 312 288 262 235 246 139 130 154 207 196 153 157 122 112 178 145 132 160 250 244 208 262 169 280 297 348 341 301 225 281 147 236 164 144 68 343 347 150 151 144 143 146 151 156 158 150 82 49 156 109 92 110
308 308 307 307 306 307 306 303 302 303 302 282 271 274 265 258 255 260 274 290 297 302 304 303 328 78 0 282 240 252 277 282 305 312 308 288 268 254 237 211 198 154 149 136 186 220 225 163 97 86 234 116 183 121 195 68 258 51 51 116 350 4 336 281 307 186 124 279 164 143 121 272 291 173 156 155 152 154 161 151 135 88 63 54 24 359 355 9
306 305 305 305 306 306 306 304 301 301 301 290 264 259 264 258 251 263 273 281 297 302 303 303 85 239 234 254 278 276 272 284 290 295 275 267 248 285 213 226 183 149 132 135 140 150 192 317 143 167 131 111 169 274 50 337 20 178 260 55 90 58 266 287 216 317 130 211 203 119 154 279 267 186 167 162 165 160 161 155 99 106 121 136 138 216 301 269
304 303 303 303 304 303 303 302 301 301 301 298 275 260 258 261 261 265 271 283 294 299 302 328 35 54 278 268 282 264 253 263 264 260 285 230 185 311 352 71 98 172 163 139 139 165 168 98 82 118 268 271 81 15 356 21 1 17 90 275 326 139 276 295 282 192 174 191 130 102 105 212 213 187 184 173 170 164 159 147 118 114 123 135 152 181 325 170
302 301 300 300 301 302 300 300 299 299 298 296 278 263 264 264 256 254 265 274 290 291 350 11 303 149 327 290 263 305 34 208 279 240 247 192 174 216 196 64 156 81 119 140 142 117 126 142 153 183 186 43 76 101 39 42 339 353 152 268 204 128 252 342 259 356 83 35 4 160 199 58 278 217 173 22 14 172 161 131 133 123 131 124 135 88 28 288
299 297 296 297 298 299 299 297 297 296 298 297 282 262 261 264 264 261 265 276 279 283 175 250 124 173 210 227 325 337 273 256 276 320 4 208 201 168 113 16 55 44 66 70 122 91 78 139 209 76 116 143 163 109 121 292 301 255 8 153 210 167 242 244 302 342 12 73 219 40 118 205 217 190 95 25 4 305 180 139 136 145 142 126 120 119 152 223
294 294 293 293 294 295 296 295 293 294 298 295 276 249 251 249 254 270 284 264 82 218 230 245 215 242 263 301 287 250 290 304 320 299 291 247 183 156 150 121 65 91 111 72 19 115 174 156 117 191 123 158 144 135 171 207 182 172 124 97 115 58 168 232 120 258 22 10 178 37 87 217 252 129 140 173 157 29 8 359 139 141 127 126 149 154 180 157
291 288 290 289 290 291 293 294 291 293 295 292 271 256 256 259 301 120 190 149 106 330 101 198 173 176 204 258 277 347 333 296 283 249 279 126 154 139 109 113 98 117 123 109 245 126 148 66 52 101 185 177 194 183 154 172 134 162 160 161 154 131 187 206 247 278 165 65 78 30 196 151 113 118 144 146 97 143 81 32 25 66 52 93 155 156 147 133
298 292 288 288 288 289 291 292 291 288 293 290 242 164 75 91 74 257 194 184 208 201 239 139 207 290 322 289 37 341 308 272 354 260 275 284 109 116 108 115 75 71 116 169 149 196 135 159 186 201 193 172 147 145 150 182 136 132 93 105 164 160 282 288 272 261 77 85 28 339 15 149 138 146 169 136 127 127 108 98 78 99 154 192 195 134 125 120
307 296 288 286 287 289 291 292 291 286 284 254 210 176 210 192 163 226 155 218 211 235 254 243 196 228 246 321 326 13 4 321 40 286 259 144 122 129 205 125 110 142 182 153 145 250 121 180 220 173 158 151 154 143 118 85 74 129 113 110 105 135 208 241 355 335 331 161 344 340 57 18 59 156 157 136 160 161 138 132 140 155 166 39 184 136 129 135
314 304 292 287 288 292 295 292 291 290 277 218 198 175 300 264 40 80 108 278 216 224 233 249 249 256 257 262 288 349 334 299 310 293 283 166 216 171 204 144 152 174 180 144 85 130 184 204 147 190 159 132 136 147 154 148 119 81 136 145 95 273 254 290 273 348 336 79 300 285 94 13 2 226 168 168 181 84 96 150 147 155 173 164 187 149 145 153
320 314 303 294 294 297 294 292 287 280 268 205 174 157 235 298 35 24 129 253 271 215 216 219 236 248 261 250 232 151 181 220 255 294 270 153 173 205 143 148 160 153 156 164 168 130 173 235 201 145 131 115 103 149 147 138 124 129 96 107 184 242 138 266 347 355 10 124 177 172 90 38 24 53 125 108 79 104 104 128 153 172 174 173 165 157 156 127
322 319 314 310 307 310 309 302 309 295 242 213 169 153 23 213 343 11 87 175 278 262 195 211 206 222 236 197 187 175 187 234 169 273 266 173 166 169 146 158 140 150 189 173 148 158 175 196 174 137 138 132 141 155 144 147 179 331 149 141 201 164 234 141 193 46 32 34 95 98 58 54 68 148 146 80 61 104 119 142 164 191 32 40 42 302 134 114
326 322 320 323 321 308 305 328 301 232 224 201 186 103 296 289 278 149 110 291 256 276 201 236 183 239 231 142 133 170 218 256 222 239 289 147 179 133 207 141 126 198 155 156 112 138 240 262 141 137 139 130 130 154 176 136 158 165 236 174 187 197 179 224 29 105 24 8 280 127 40 302 154 199 159 99 81 77 140 162 169 134 89 76 127 278 106 100
333 328 331 334 322 331 20 61 228 290 161 109 89 64 279 314 196 184 113 266 290 219 98 235 149 249 139 189 143 185 95 261 204 219 199 225 242 165 124 189 153 186 153 143 159 168 197 183 154 154 147 146 147 161 202 153 159 139 246 183 175 170 167 97 303 72 43 109 275 86 161 261 160 183 195 103 102 131 145 168 152 117 114 67 111 233 117 104
341 346 344 338 335 6 106 231 40 259 76 43 325 260 279 345 211 177 220 302 312 190 162 132 162 252 154 168 152 150 107 259 117 166 187 246 212 232 154 191 94 74 144 152 77 236 152 155 148 128 149 158 149 183 211 148 127 199 241 161 135 139 166 220 109 107 215 228 299 110 121 148 167 198 160 108 124 157 158 150 119 118 113 93 292 302 92 99
342 347 350 354 360 68 90 316 198 70 76 83 247 258 266 45 41 189 213 95 286 132 152 209 229 157 157 163 163 168 202 131 129 214 189 179 169 309 142 185 164 151 168 136 190 314 161 172 163 161 158 161 189 174 152 149 133 214 175 147 150 153 187 160 184 201 239 9 284 329 64 51 303 55 76 141 122 166 203 128 145 158 154 157 163 172 93 90
340 344 359 4 12 114 126 236 331 76 23 250 236 231 164 184 258 136 160 157 92 102 103 110 253 105 98 152 172 206 306 224 106 178 149 104 213 119 153 204 139 151 158 162 152 207 301 177 182 155 156 192 157 154 151 147 123 254 143 116 128 108 84 161 162 184 315 102 264 211 175 142 276 242 129 205 157 171 175 176 176 164 158 156 139 118 111 114
339 346 0 21 38 67 182 273 269 90 231 275 253 232 163 124 148 210 64 276 130 307 172 132 200 181 144 153 181 224 243 300 16 97 118 146 208 305 296 146 128 139 118 84 151 196 169 308 164 149 185 162 152 163 157 162 176 130 131 98 63 49 67 45 68 106 61 274 247 191 204 148 248 217 185 167 194 173 170 171 148 136 101 96 104 110 123 127
338 342 350 34 60 254 352 248 229 245 285 283 315 44 106 45 175 201 255 250 34 331 52 139 182 117 146 159 171 208 249 308 78 154 131 156 155 204 138 89 57 74 77 84 179 245 302 82 111 249 133 152 128 120 194 168 147 135 130 121 98 5 21 38 349 42 157 263 265 213 184 168 199 287 235 233 121 166 165 171 156 146 138 131 129 137 138 135
332 332 327 353 207 197 237 215 181 231 263 295 41 77 135 166 16 177 211 357 166 329 125 146 109 143 166 178 151 173 177 130 255 169 158 172 160 164 194 172 157 143 180 166 200 325 252 147 245 304 160 141 153 115 116 170 146 135 110 113 134 233 88 242 69 242 214 198 254 22 123 73 250 214 263 204 179 167 186 159 149 143 134 138 145 148 136 114
327 320 317 297 286 163 242 245 182 283 311 307 93 62 210 126 213 248 282 319 87 8 1 355 159 166 165 149 207 167 247 171 215 173 141 148 147 220 251 162 184 130 169 185 105 137 298 335 320 302 149 172 149 155 162 152 197 147 157 153 141 147 177 200 248 248 324 288 273 282 285 317 287 291 353 257 210 153 123 118 130 143 145 138 134 128 116 103
316 319 309 260 248 206 208 212 252 306 316 214 172 71 305 97 251 116 276 29 318 322 312 18 343 158 156 167 198 163 161 258 148 180 165 158 160 176 216 222 148 89 88 158 144 167 116 227 249 168 214 178 166 170 173 151 146 193 100 148 172 138 161 198 190 196 213 201 299 298 134 232 132 256 324 288 114 105 106 111 111 105 103 99 75 48 79 108
310 307 310 325 339 260 228 216 248 272 286 258 91 187 224 236 335 298 342 356 320 323 310 317 221 124 191 251 145 187 160 202 188 134 171 156 188 183 179 179 213 113 136 130 234 107 197 183 252 192 201 171 172 162 134 112 127 229 151 73 124 207 136 130 202 145 191 151 78 206 182 324 25 301 290 113 104 108 113 111 109 112 110 105 95 67 51 82
335 293 93 299 300 269 185 183 193 218 214 46 86 228 244 15 259 20 10 327 292 338 324 327 132 121 184 213 96 182 240 135 207 129 155 173 145 176 171 151 174 170 144 153 193 135 109 221 280 181 179 170 173 156 183 146 176 210 111 194 200 139 94 88 67 87 99 67 238 106 55 214 319 292 68 133 115 127 126 127 127 130 124 120 120 126 127 131
341 336 22 317 281 238 153 166 165 134 50 231 50 271 316 353 41 5 347 330 318 310 318 57 182 128 188 199 175 176 207 91 152 118 177 135 161 180 173 187 139 124 162 125 288 193 144 228 283 131 190 246 199 167 179 186 142 113 186 217 128 101 108 124 204 348 55 171 241 97 179 182 136 225 164 157 130 138 137 137 134 135 138 135 137 133 147 148
339 322 253 337 308 121 134 147 121 103 200 235 190 276 2 284 66 348 313 319 321 317 310 307 280 98 192 143 187 170 210 129 192 99 154 185 237 166 150 156 186 153 190 118 137 239 118 105 263 200 181 183 115 153 179 203 156 171 174 189 138 198 231 294 94 215 164 225 262 312 244 200 203 203 157 172 144 152 147 146 143 148 149 143 141 147 139 123
347 9 28 3 357 115 150 146 124 177 234 78 293 318 111 291 333 283 297 306 277 302 300 322 19 267 143 153 177 132 156 152 172 141 124 214 127 196 170 141 184 185 179 151 92 183 87 132 282 274 174 174 131 157 194 184 342 67 120 169 174 132 202 113 200 173 113 214 76 297 134 233 197 186 185 178 171 160 155 158 158 153 150 148 146 145 138 129
353 34 17 15 2 82 157 210 181 251 206 221 219 243 34 290 282 272 271 309 333 359 305 302 358 327 9 234 166 149 73 117 146 219 99 180 91 239 177 161 155 185 188 187 143 160 110 124 156 258 268 142 192 194 198 161 157 134 150 171 194 55 234 104 21 131 169 164 179 144 278 255 238 175 186 189 177 167 159 153 149 146 146 144 143 142 135 127
338 94 1 28 332 316 4 342 272 24 343 291 292 282 303 271 307 257 265 264 263 235 235 269 323 300 315 27 124 139 101 102 121 107 122 157 137 154 245 175 141 170 125 208 170 201 71 113 172 299 150 204 292 81 148 173 168 169 154 186 156 109 121 160 229 34 85 103 193 138 240 275 268 304 202 170 161 141 152 138 135 134 137 138 134 131 127 122
358 35 331 58 24 353 324 320 14 357 334 283 260 247 282 296 278 276 303 263 228 246 210 261 237 235 244 235 195 90 125 116 139 97 284 153 214 133 201 160 153 147 147 185 181 240 146 166 97 138 201 165 189 176 197 170 167 171 162 203 172 153 127 147 186 220 62 55 116 150 124 281 263 299 145 140 138 147 143 141 131 134 136 134 126 116 106 116
31 188 277 227 10 341 325 275 264 222 248 250 303 277 259 264 252 274 292 277 285 207 239 225 229 187 235 200 205 129 140 99 152 172 192 134 219 211 201 167 147 151 131 216 142 205 138 96 128 298 296 306 315 296 39 171 155 153 227 161 144 193 185 166 160 181 146 159 111 2 147 251 297 110 124 122 124 120 125 137 130 132 134 130 123 120 124 123
328 336 14 30 11 42 310 288 302 228 256 248 233 254 233 248 230 252 234 244 229 175 226 263 248 203 273 192 211 189 197 108 249 139 65 231 179 233 149 171 161 163 158 218 155 227 151 282 123 101 150 3 360 20 25 35 154 169 184 202 190 171 130 130 104 53 132 209 164 128 224 265 264 117 118 119 125 132 138 145 138 132 132 131 128 128 129 127
308 278 244 136 133 191 252 327 311 313 300 305 302 283 272 249 227 223 231 250 234 246 281 251 240 349 269 220 206 134 62 136 134 237 136 161 218 8 172 153 191 152 172 181 159 162 139 190 115 133 159 158 175 183 200 197 203 242 253 177 189 171 145 122 149 167 190 242 124 163 203 257 129 131 131 135 136 136 143 145 144 138 137 134 132 130 130 130
306 301 175 200 169 219 252 264 272 260 283 285 265 237 225 260 248 221 214 252 222 243 245 284 307 245 2 358 33 58 55 31 127 190 142 177 301 321 186 165 165 173 194 160 147 134 158 132 130 152 149 177 199 204 234 141 109 189 197 166 189 183 180 162 122 135 196 190 182 226 157 150 154 164 159 159 154 153 153 154 152 144 137 135 136 137 139 135
353 273 197 312 236 221 253 234 252 237 261 355 314 1 306 321 294 301 178 235 194 188 225 196 276 28 346 33 20 22 231 155 249 135 181 158 257 236 320 178 175 180 174 159 154 99 93 150 196 124 107 195 198 211 260 222 184 190 146 192 182 164 171 147 159 207 160 108 227 275 172 141 186 174 171 157 155 152 154 152 147 144 142 139 136 135 129 119
70 264 210 221 279 277 12 266 215 249 256 256 270 325 292 313 328 332 300 217 318 237 171 7 13 71 55 346 299 108 36 66 111 163 82 30 24 338 49 24 178 207 166 150 174 125 135 162 233 107 26 341 320 283 269 81 88 134 99 169 177 175 163 173 197 178 147 168 205 187 176 166 181 185 181 175 169 163 159 154 145 139 132 135 139 137 133 131
206 244 232 260 286 225 203 257 254 254 260 229 237 245 298 312 323 335 319 317 350 339 37 126 262 317 319 298 178 132 140 114 123 335 160 165 173 51 74 31 221 317 162 124 171 149 115 203 176 132 121 14 359 345 38 117 114 50 40 23 300 188 187 173 149 182 166 169 182 160 179 182 187 176 159 151 137 133 132 126 132 140 145 143 140 139 140 144
13 345 328 295 252 277 280 290 292 300 309 326 315 235 244 309 337 343 319 12 336 318 345 64 327 327 319 314 147 74 327 167 173 136 210 120 91 131 163 189 138 15 140 150 164 275 146 261 142 127 85 22 345 339 54 69 98 98 26 41 34 89 71 65 108 113 89 53 99 137 139 115 359 131 130 126 128 127 129 145 151 149 147 147 143 144 146 146
304 278 293 303 299 257 249 239 277 310 310 319 213 291 310 301 354 341 293 222 215 277 28 318 341 318 315 24 47 40 324 229 109 107 172 148 167 210 129 251 147 148 151 131 175 119 104 165 38 105 118 39 334 10 91 85 78 89 36 18 28 42 135 175 135 204 132 141 131 126 131 166 182 135 131 137 143 148 153 156 155 158 156 150 150 151 152 151
272 243 269 314 287 315 319 315 290 260 262 214 219 263 281 268 226 328 323 323 169 239 136 91 270 258 335 30 22 347 319 288 271 278 174 196 126 89 82 145 148 160 160 157 137 130 140 128 149 137 130 244 272 293 90 85 55 28 310 271 212 240 254 297 309 117 180 140 128 149 208 181 156 148 144 156 158 156 156 162 158 157 160 157 157 157 154 152